| time (UTC) | temp F | wind direction | speed knots | gust knots | rain 1hr in | rain 24hr in | rain mn in | humidity % | barometer mb |
| 20260505232032 | 45 | 135 | 0.0 | 0.0 | 0.00 | 0.31 | 0.19 | 91 | 1017.4 |
| 20260505225032 | 45 | 157 | 0.0 | 0.9 | 0.00 | 0.31 | 0.19 | 91 | 1017.4 |
| 20260505224031 | 45 | 157 | 0.0 | 0.0 | 0.00 | 0.31 | 0.19 | 92 | 1017.3 |
| 20260505223034 | 45 | 135 | 0.0 | 0.0 | 0.00 | 0.32 | 0.19 | 92 | 1017.4 |
| 20260505222032 | 45 | 180 | 0.0 | 0.0 | 0.00 | 0.32 | 0.19 | 92 | 1017.4 |
| 20260505221031 | 45 | 180 | 0.0 | 0.0 | 0.00 | 0.33 | 0.19 | 92 | 1017.4 |
| 20260505220033 | 45 | 103 | 0.0 | 0.0 | 0.00 | 0.35 | 0.19 | 92 | 1017.4 |
| 20260505215030 | 44 | 214 | 0.0 | 0.0 | 0.00 | 0.37 | 0.19 | 91 | 1017.4 |
| 20260505214047 | 45 | 225 | 0.0 | 0.0 | 0.00 | 0.39 | 0.19 | 91 | 1017.4 |
| 20260505211031 | 44 | 135 | 0.9 | 1.7 | 0.00 | 0.43 | 0.19 | 91 | 1017.6 |
| 20260505210035 | 44 | 135 | 0.0 | 0.0 | 0.00 | 0.44 | 0.19 | 91 | 1017.6 |
| 20260505205033 | 45 | 46 | 0.0 | 0.0 | 0.00 | 0.45 | 0.19 | 90 | 1017.5 |
| 20260505204031 | 45 | 80 | 0.0 | 0.0 | 0.00 | 0.47 | 0.19 | 90 | 1017.3 |
| 20260505203035 | 45 | 45 | 0.0 | 0.9 | 0.00 | 0.49 | 0.19 | 90 | 1017.5 |
| 20260505202032 | 45 | 112 | 0.0 | 0.9 | 0.00 | 0.51 | 0.19 | 89 | 1017.3 |
| 20260505201032 | 45 | 265 | 0.0 | 0.9 | 0.00 | 0.51 | 0.19 | 89 | 1017.2 |
| 20260505200034 | 45 | 147 | 0.0 | 0.0 | 0.00 | 0.51 | 0.19 | 89 | 1017.3 |
| 20260505195033 | 45 | 180 | 0.0 | 0.0 | 0.00 | 0.51 | 0.19 | 89 | 1017.4 |
| 20260505194131 | 45 | 174 | 1.7 | 2.6 | 0.00 | 0.51 | 0.19 | 89 | 1017.4 |
| 20260505193132 | 45 | 157 | 0.0 | 0.0 | 0.00 | 0.51 | 0.19 | 90 | 1017.3 |
| 20260505192132 | 45 | 180 | 0.0 | 0.9 | 0.00 | 0.51 | 0.19 | 89 | 1017.2 |
| 20260505191232 | 45 | 149 | 0.0 | 0.0 | 0.00 | 0.51 | 0.19 | 88 | 1017.2 |
| 20260505190331 | 46 | 202 | 0.0 | 0.9 | 0.00 | 0.51 | 0.19 | 87 | 1017.0 |
| 20260505185333 | 47 | 136 | 1.7 | 3.5 | 0.00 | 0.51 | 0.19 | 87 | 1016.8 |
| 20260505184333 | 46 | 136 | 0.0 | 0.0 | 0.00 | 0.51 | 0.19 | 87 | 1017.0 |
| 20260505183331 | 46 | 247 | 0.0 | 0.0 | 0.00 | 0.51 | 0.19 | 88 | 1016.7 |
| 20260505181331 | 45 | 180 | 0.0 | 0.0 | 0.00 | 0.51 | 0.19 | 87 | 1016.6 |
| 20260505175332 | 45 | 157 | 0.0 | 0.0 | 0.00 | 0.51 | 0.19 | 88 | 1016.4 |
| 20260505173432 | 46 | 157 | 0.0 | 0.9 | 0.00 | 0.51 | 0.19 | 83 | 1016.2 |
| 20260505172432 | 46 | 180 | 0.9 | 1.7 | 0.00 | 0.51 | 0.19 | 84 | 1016.1 |
| 20260505171432 | 47 | 180 | 0.0 | 0.0 | 0.00 | 0.51 | 0.19 | 87 | 1016.1 |
| 20260505170431 | 47 | 225 | 0.0 | 0.0 | 0.00 | 0.51 | 0.19 | 91 | 1016.2 |
| 20260505165431 | 47 | 225 | 0.0 | 0.0 | 0.00 | 0.51 | 0.19 | 93 | 1016.1 |
| 20260505164432 | 45 | 58 | 0.0 | 0.9 | 0.00 | 0.51 | 0.19 | 95 | 1015.9 |
| 20260505163432 | 42 | 180 | 0.0 | 0.0 | 0.00 | 0.52 | 0.19 | 94 | 1015.8 |
| 20260505162530 | 41 | 180 | 0.0 | 0.9 | 0.00 | 0.52 | 0.19 | 94 | 1015.7 |
| 20260505161534 | 41 | 180 | 0.0 | 0.0 | 0.00 | 0.52 | 0.19 | 95 | 1015.9 |
| 20260505160548 | 40 | 180 | 0.0 | 0.0 | 0.01 | 0.52 | 0.19 | 94 | 1015.9 |
| 20260505152731 | 38 | 225 | 0.0 | 0.0 | 0.05 | 0.56 | 0.19 | 94 | 1015.5 |
| 20260505151732 | 37 | 225 | 0.0 | 0.0 | 0.06 | 0.60 | 0.19 | 94 | 1015.3 |
| 20260505150830 | 37 | 225 | 0.0 | 0.0 | 0.05 | 0.61 | 0.18 | 94 | 1015.2 |
| 20260505123931 | 37 | 225 | 0.0 | 0.0 | 0.00 | 0.57 | 0.10 | 95 | 1014.7 |
| 20260505121933 | 37 | 225 | 0.0 | 0.0 | 0.00 | 0.57 | 0.10 | 94 | 1014.6 |
| 20260505121030 | 37 | 225 | 0.0 | 0.0 | 0.00 | 0.57 | 0.10 | 94 | 1014.7 |
| 20260505120034 | 37 | 225 | 0.0 | 0.0 | 0.00 | 0.57 | 0.10 | 95 | 1014.7 |
| 20260505115047 | 37 | 225 | 0.0 | 0.0 | 0.00 | 0.57 | 0.10 | 94 | 1014.6 |
| 20260505113034 | 37 | 225 | 0.0 | 0.0 | 0.00 | 0.57 | 0.10 | 94 | 1014.6 |
| 20260505111030 | 37 | 225 | 0.0 | 0.0 | 0.00 | 0.57 | 0.10 | 95 | 1014.7 |
| 20260505101032 | 37 | 225 | 0.0 | 0.0 | 0.02 | 0.57 | 0.10 | 95 | 1015.1 |
| 20260505100039 | 37 | 225 | 0.0 | 0.0 | 0.01 | 0.57 | 0.09 | 94 | 1015.1 |
| 20260505095031 | 37 | 225 | 0.0 | 0.0 | 0.02 | 0.57 | 0.09 | 95 | 1015.1 |
| 20260505094130 | 37 | 225 | 0.0 | 0.0 | 0.02 | 0.57 | 0.09 | 95 | 1015.1 |
| 20260505093131 | 37 | 225 | 0.0 | 0.0 | 0.02 | 0.57 | 0.09 | 95 | 1015.0 |
| 20260505092131 | 37 | 225 | 0.0 | 0.0 | 0.03 | 0.57 | 0.08 | 95 | 1015.3 |
| 20260505091132 | 37 | 225 | 0.0 | 0.0 | 0.03 | 0.56 | 0.08 | 95 | 1015.2 |
| 20260505090130 | 37 | 225 | 0.0 | 0.0 | 0.03 | 0.56 | 0.08 | 94 | 1015.3 |
| 20260505085131 | 37 | 225 | 0.0 | 0.0 | 0.03 | 0.55 | 0.07 | 94 | 1015.3 |
| 20260505084132 | 37 | 225 | 0.0 | 0.0 | 0.04 | 0.55 | 0.07 | 95 | 1015.4 |
| 20260505083130 | 38 | 225 | 0.0 | 0.0 | 0.04 | 0.55 | 0.07 | 94 | 1015.6 |
| 20260505081133 | 38 | 225 | 0.0 | 0.0 | 0.04 | 0.53 | 0.05 | 94 | 1015.8 |
| 20260505080133 | 38 | 225 | 0.0 | 0.0 | 0.05 | 0.53 | 0.05 | 95 | 1015.7 |
| 20260505074133 | 38 | 225 | 0.0 | 0.0 | 0.04 | 0.51 | 0.03 | 95 | 1015.8 |
| 20260505073133 | 39 | 225 | 0.0 | 0.0 | 0.05 | 0.51 | 0.02 | 95 | 1015.8 |
| 20260505072130 | 39 | 225 | 0.0 | 0.0 | 0.05 | 0.50 | 0.02 | 94 | 1015.8 |
| 20260505071131 | 39 | 225 | 0.0 | 0.0 | 0.05 | 0.49 | 0.01 | 95 | 1015.8 |
| 20260505070230 | 39 | 225 | 0.0 | 0.0 | 0.05 | 0.49 | 0.00 | 94 | 1015.8 |
| 20260505065329 | 39 | 225 | 0.0 | 0.0 | 0.05 | 0.48 | 0.48 | 95 | 1015.8 |
| 20260505064329 | 39 | 225 | 0.0 | 0.0 | 0.05 | 0.47 | 0.47 | 95 | 1015.8 |
| 20260505063329 | 38 | 225 | 0.0 | 0.0 | 0.06 | 0.47 | 0.47 | 94 | 1015.7 |
| 20260505062328 | 39 | 225 | 0.0 | 0.0 | 0.06 | 0.46 | 0.45 | 95 | 1015.9 |
| 20260505060330 | 39 | 225 | 0.0 | 0.0 | 0.06 | 0.44 | 0.44 | 94 | 1015.9 |
| 20260505055330 | 39 | 225 | 0.0 | 0.0 | 0.05 | 0.43 | 0.43 | 94 | 1015.8 |
| 20260505054328 | 39 | 225 | 0.0 | 0.0 | 0.04 | 0.42 | 0.42 | 95 | 1015.9 |
| 20260505053328 | 39 | 225 | 0.0 | 0.0 | 0.03 | 0.41 | 0.41 | 94 | 1016.0 |
| 20260505052328 | 39 | 172 | 0.0 | 0.9 | 0.02 | 0.40 | 0.40 | 95 | 1015.8 |
| 20260505050329 | 39 | 157 | 0.0 | 0.0 | 0.00 | 0.38 | 0.38 | 93 | 1016.0 |
| 20260505041429 | 39 | 157 | 0.0 | 0.0 | 0.01 | 0.38 | 0.38 | 94 | 1015.9 |
| 20260505035528 | 39 | 157 | 0.0 | 0.0 | 0.01 | 0.38 | 0.38 | 93 | 1015.8 |
| 20260505034528 | 39 | 180 | 0.9 | 1.7 | 0.01 | 0.38 | 0.38 | 94 | 1015.8 |
| 20260505033529 | 39 | 135 | 0.0 | 0.0 | 0.01 | 0.38 | 0.38 | 94 | 1015.8 |
| 20260505031527 | 39 | 135 | 0.0 | 0.0 | 0.00 | 0.37 | 0.37 | 93 | 1015.5 |
| 20260505030545 | 39 | 135 | 0.0 | 0.0 | 0.00 | 0.37 | 0.37 | 93 | 1015.4 |
| 20260505025530 | 39 | 135 | 0.0 | 0.0 | 0.00 | 0.37 | 0.37 | 94 | 1015.4 |
| 20260505024627 | 39 | 135 | 0.0 | 0.0 | 0.00 | 0.37 | 0.37 | 94 | 1015.4 |
| 20260505023630 | 39 | 135 | 0.0 | 0.0 | 0.00 | 0.37 | 0.37 | 93 | 1015.4 |
| 20260505022629 | 39 | 135 | 0.0 | 0.0 | 0.00 | 0.37 | 0.37 | 94 | 1015.4 |
| 20260505021630 | 39 | 135 | 0.0 | 0.0 | 0.00 | 0.37 | 0.37 | 94 | 1015.6 |
| 20260505020728 | 39 | 67 | 0.0 | 0.0 | 0.00 | 0.37 | 0.37 | 93 | 1015.8 |
| 20260505015728 | 39 | 67 | 0.0 | 0.0 | 0.00 | 0.37 | 0.37 | 93 | 1015.9 |
| 20260505014827 | 39 | 67 | 0.0 | 0.0 | 0.00 | 0.37 | 0.37 | 93 | 1016.0 |
| 20260505013828 | 40 | 45 | 0.0 | 0.0 | 0.01 | 0.37 | 0.37 | 93 | 1016.0 |
| 20260505012829 | 39 | 157 | 0.0 | 0.0 | 0.01 | 0.37 | 0.37 | 93 | 1016.1 |
| 20260505011829 | 39 | 157 | 0.0 | 0.0 | 0.01 | 0.37 | 0.37 | 94 | 1016.1 |
| 20260505010829 | 40 | 157 | 0.0 | 1.7 | 0.01 | 0.37 | 0.37 | 93 | 1016.1 |
| 20260505005928 | 40 | 180 | 0.0 | 0.0 | 0.01 | 0.37 | 0.37 | 94 | 1016.1 |
| 20260505004928 | 40 | 180 | 0.0 | 0.9 | 0.01 | 0.37 | 0.37 | 93 | 1016.2 |
| 20260505004830 | 40 | 194 | 0.9 | 2.6 | 0.01 | 0.37 | 0.37 | 93 | 1016.2 |
| 20260505003830 | 40 | 175 | 0.9 | 3.5 | 0.00 | 0.36 | 0.36 | 93 | 1016.0 |
| 20260505001927 | 41 | 180 | 0.0 | 0.0 | 0.00 | 0.36 | 0.36 | 93 | 1016.1 |
| 20260505000930 | 41 | 157 | 0.9 | 2.6 | 0.00 | 0.36 | 0.36 | 94 | 1016.2 |
| 20260504235928 | 41 | 157 | 0.0 | 0.0 | 0.00 | 0.36 | 0.36 | 94 | 1016.1 |
| 20260504234931 | 41 | 157 | 0.0 | 0.0 | 0.00 | 0.36 | 0.36 | 94 | 1016.2 |
| 20260504233927 | 41 | 157 | 0.0 | 0.0 | 0.00 | 0.36 | 0.36 | 93 | 1016.2 |
| 20260504232928 | 41 | 157 | 0.9 | 1.7 | 0.01 | 0.36 | 0.36 | 93 | 1016.2 |